TimePDT,TemperatureF,Dew PointF,Humidity,Sea Level PressureIn,VisibilityMPH,Wind Direction,Wind SpeedMPH,Gust SpeedMPH,PrecipitationIn,Events,Conditions,WindDirDegrees,DateUTC
12:56 AM,43.0,21.0,42,29.92,10.0,South,3.5,-,N/A,,Clear,190,2013-10-12 07:56:00
1:56 AM,42.1,19.9,41,29.93,10.0,Calm,Calm,-,N/A,,Clear,0,2013-10-12 08:56:00
2:56 AM,37.0,18.0,46,29.91,10.0,WSW,3.5,-,N/A,,Clear,240,2013-10-12 09:56:00
3:56 AM,35.1,19.0,52,29.91,10.0,South,6.9,-,N/A,,Clear,180,2013-10-12 10:56:00
4:56 AM,36.0,19.0,50,29.91,10.0,SSE,8.1,-,N/A,,Clear,150,2013-10-12 11:56:00
5:56 AM,37.9,18.0,45,29.91,10.0,South,4.6,-,N/A,,Clear,180,2013-10-12 12:56:00
6:56 AM,36.0,18.0,48,29.91,10.0,SSE,8.1,-,N/A,,Clear,160,2013-10-12 13:56:00
7:56 AM,41.0,19.9,43,29.93,10.0,SSE,5.8,-,N/A,,Clear,160,2013-10-12 14:56:00
8:56 AM,50.0,23.0,35,29.93,10.0,SSE,4.6,-,N/A,,Scattered Clouds,160,2013-10-12 15:56:00
9:56 AM,55.0,28.0,35,29.92,10.0,SSE,3.5,-,N/A,,Scattered Clouds,160,2013-10-12 16:56:00
10:56 AM,60.1,30.0,32,29.90,10.0,Calm,Calm,-,N/A,,Scattered Clouds,0,2013-10-12 17:56:00
11:56 AM,62.1,30.0,30,29.88,10.0,Calm,Calm,-,N/A,,Scattered Clouds,0,2013-10-12 18:56:00
12:56 PM,64.0,24.1,22,29.84,10.0,WSW,5.8,-,N/A,,Scattered Clouds,240,2013-10-12 19:56:00
1:56 PM,66.0,23.0,20,29.81,10.0,Variable,3.5,-,N/A,,Scattered Clouds,0,2013-10-12 20:56:00
2:56 PM,70.0,21.0,16,29.79,9.0,Variable,5.8,-,N/A,,Scattered Clouds,0,2013-10-12 21:56:00
3:56 PM,68.0,19.9,16,29.77,10.0,Variable,3.5,-,N/A,,Scattered Clouds,0,2013-10-12 22:56:00
4:56 PM,66.9,18.0,15,29.77,10.0,NE,6.9,-,N/A,,Mostly Cloudy,40,2013-10-12 23:56:00
5:56 PM,64.9,24.1,21,29.77,10.0,NNW,10.4,-,N/A,,Mostly Cloudy,340,2013-10-13 00:56:00
6:56 PM,63.0,25.0,24,29.78,10.0,WNW,9.2,-,N/A,,Overcast,290,2013-10-13 01:56:00
7:56 PM,60.1,24.1,25,29.80,10.0,WNW,11.5,-,N/A,,Scattered Clouds,290,2013-10-13 02:56:00
8:56 PM,57.9,25.0,28,29.82,10.0,WNW,16.1,-,N/A,,Clear,300,2013-10-13 03:56:00
9:56 PM,51.1,33.1,50,29.85,10.0,North,12.7,-,N/A,,Clear,10,2013-10-13 04:56:00
10:56 PM,48.9,34.0,56,29.86,10.0,North,11.5,-,N/A,,Scattered Clouds,10,2013-10-13 05:56:00
11:56 PM,45.0,33.1,63,29.87,10.0,Calm,Calm,-,N/A,,Clear,0,2013-10-13 06:56:00